Location: Malvern Link
(52.1333°N, 2.3000°W)
Time: 14:32:14
(UTC+00:00)

SO-50 - Pass Details

Date: 06 July 2022
Orbit: 585 x 698 km, 64.6° (Epoch: 11 August)

Event Time Altitude Azimuth Distance (km) Brightness Sun altitude
Exits shadow 21:48:41 11° 133° (SE) 2,036 ? -8.8°
Maximum altitude 21:50:34 13° 109° (ESE) 1,898 ? -8.9°
Drops below altitude 10° 21:52:43 10° 82° (E) 2,113 ? -9.1°
Sets 21:56:17 0° 55° (NE) 3,056 ? -9.4°
